OBJECT D, 62084

Orbit data source: Space-Track

You're viewing an Uncataloged Satellite

Recently launched and/or uncataloged satellites may have evolving metadata. Metadata may include but not limited to: Owner, Maufacturer, Bus, Motor, and Mission.

OBJECT D, 62084 is a satellite in SSO that was launched on Mon, 25 Nov 2024 UTC via an ELECTRON launch vehicle from the Rocket Lab Launch Complex (RLLC). Unknown objects in Earth's orbit typically refer to objects detected orbiting the Earth but have not yet been identified or cataloged. These objects could be anything from previously untracked satellites, spent rocket stages, debris from satellite collisions, or even natural meteoroids temporarily captured by Earth's gravity.

Loading next visibility...
OBJECT D details
Identifier
62084, 2024-219D
Orbit
SSO
Last TLE update4 hours ago
Origin
Flag of TBDKINEIS (TBD)
ManufacturerKINEIS
MissionOperational spacecraft
Bus & MotorCUBESAT 16U, Unknown motor
Mass28 kg wet, 28 kg dry
Launch date (UTC)
2024-11-25 (3 weeks ago)
Launch vehicle
ELECTRON
Launch site
Rocket Lab Launch Complex (RLLC)
Object typeUnknown
Shape & HBRUnknown
Radar Cross SectionMedium (>0.1 m² and <1 m²)

Expand to show TLE details & history

TLE from 4 hours ago
0 OBJECT D
1 62084U 24219D   24348.74896800  .00001471  00000-0  21355-3 0  9993
2 62084  97.9496 147.4441 0001215 269.5309  90.5762 14.77468555  2737
Epoch: 2024-12-13T17:58Z
Definitive object data (Epoch: 2024-12-13T17:58:30.835Z)
Latitude-0.00002°
Longitude154.90514°
Altitude640.351 km
Speed7.538 km/s
True Right ascension09h 49m 46s
True Declination0° 00' 00"
Sunlit
Object was in daylight at TLE epoch
Visualization TLE readout
Latitude47.77812°
Longitude-16.13294°
Altitude645.42 km
Speed7.539 km/s
Apparent Right ascension03h 37m 53s
Apparent Declination23° 08' 60"
Sunlit
Object is in daylight
Visualization observer readout
Local Sidereal Time20:21:00
Azimuth60.273° ENE
Elevation1.151°
Doppler factor1
Orbital elements
Apogee altitude635.225 km
Perigee altitude633.521 km
Semi-major axis7,012.51 km
Eccentricity0.0001215
Inclination97.9496°
RAAN147.4441°
Arg. of periapsis269.5309°
True anomaly90.59012°
Mean anomaly90.5762°
Eccentric anomaly90.58316°
Mean motion3.69601 °/min
BSTAR0.00021355
Orbital period97.4 mins
Loading maneuver chart data...
Loading historical data...
Loading historical data...
Loading historical data...
Loading historical data...
Loading historical data...
Loading historical data...
Loading historical data...

OBJECT D Visibility forecast

Observer location: undefined°, undefined

Span
Click to sort rows by Start time (UTC) header in descending order
Start Az.
Max El. time (UTC)
Max El. Az.
Max El.
End time (UTC)
End Az.
8 mins2024-12-13 23:25:12.793Z21.999° NNE2024-12-13 23:29:12.793Z111.437° ESE40.441°2024-12-13 23:33:12.793Z180.265° SSW
6 mins2024-12-14 10:22:12.793Z136.745° SSE2024-12-14 10:25:12.793Z64.372° ENE35.063°2024-12-14 10:28:12.793Z5.464° NNE
4 mins2024-12-14 12:00:12.793Z245.12° WSW2024-12-14 12:01:12.793Z260.194° W14.772°2024-12-14 12:04:12.793Z303.634° NW
|